contact: severine.martini@mio.osupytheas.fr, dominique.lefevre@mio.osupytheas.fr
Project:EMSO Ligure-ouest http://www.emso-fr.org/EMSO-France
Sensor Optode, line 4330 Serial 272 
DOI : "https://doi.org/10.17882/97948" 
Title:EMSO Ligure Ouest : Data BathyDock capteur Optode - deploiement "2023-04-28"
Datetime,Profondeur,Latitude,Longitude,optode_type,serial,O2_concentration,O2_saturation,Temperature,Calibrated_Phase,Temp_Compensated_Phase,phase_blue_light,phase_red_light,Amplitude_blue_light,Amplitude_red_light,thermistor_bridge
time,m,degree_north,degree_east,1,1,umol.l-1,%,degree_C,degree,degree,degree,degree,mV,mV,mV
2023-10-23T00:00:08,2420,42.8014,5.9826,4330,272,186.751,57.197,13.310,36.021,36.601,41.189,4.588,295.4,543.8,291.2
2023-10-23T00:03:07,2420,42.8014,5.9826,4330,272,186.928,57.254,13.313,36.008,36.588,41.185,4.597,295.3,543.7,291.1
2023-10-23T00:06:08,2420,42.8014,5.9826,4330,272,186.773,57.202,13.309,36.020,36.600,41.192,4.592,295.4,543.8,291.3
2023-10-23T00:09:08,2420,42.8014,5.9826,4330,272,186.880,57.233,13.307,36.014,36.594,41.182,4.588,295.4,543.8,291.3
2023-10-23T00:12:08,2420,42.8014,5.9826,4330,272,186.768,57.201,13.309,36.020,36.600,41.194,4.594,295.4,543.8,291.3
2023-10-23T00:15:08,2420,42.8014,5.9826,4330,272,186.949,57.258,13.311,36.007,36.588,41.188,4.600,295.4,543.8,291.2
2023-10-23T00:18:08,2420,42.8014,5.9826,4330,272,186.829,57.215,13.306,36.018,36.598,41.190,4.592,295.4,543.8,291.4
2023-10-23T00:21:08,2420,42.8014,5.9826,4330,272,186.709,57.183,13.309,36.024,36.604,41.196,4.593,295.4,543.8,291.2
2023-10-23T00:24:08,2420,42.8014,5.9826,4330,272,186.685,57.174,13.308,36.026,36.607,41.197,4.590,295.3,543.8,291.3
2023-10-23T00:27:08,2420,42.8014,5.9826,4330,272,186.680,57.176,13.311,36.025,36.605,41.196,4.591,295.4,543.8,291.2
2023-10-23T00:30:08,2420,42.8014,5.9826,4330,272,186.624,57.159,13.311,36.029,36.609,41.196,4.587,295.4,543.7,291.2
2023-10-23T00:33:07,2420,42.8014,5.9826,4330,272,186.629,57.160,13.310,36.029,36.609,41.204,4.595,295.4,543.8,291.2
2023-10-23T00:36:08,2420,42.8014,5.9826,4330,272,186.760,57.201,13.311,36.020,36.600,41.188,4.588,295.4,543.8,291.2
2023-10-23T00:39:08,2420,42.8014,5.9826,4330,272,186.658,57.168,13.310,36.027,36.607,41.203,4.596,295.3,543.8,291.2
2023-10-23T00:42:08,2420,42.8014,5.9826,4330,272,186.969,57.269,13.315,36.005,36.585,41.179,4.593,295.4,543.7,291.1
2023-10-23T00:45:08,2420,42.8014,5.9826,4330,272,186.753,57.197,13.310,36.021,36.601,41.197,4.595,295.4,543.7,291.2
2023-10-23T00:48:08,2420,42.8014,5.9826,4330,272,186.629,57.160,13.310,36.028,36.608,41.202,4.593,295.4,543.7,291.2
2023-10-23T00:51:08,2420,42.8014,5.9826,4330,272,186.753,57.198,13.310,36.020,36.600,41.189,4.588,295.3,543.8,291.2
2023-10-23T00:54:08,2420,42.8014,5.9826,4330,272,186.799,57.213,13.311,36.017,36.597,41.188,4.590,295.4,543.8,291.2
2023-10-23T00:57:08,2420,42.8014,5.9826,4330,272,186.762,57.200,13.310,36.020,36.600,41.192,4.592,295.4,543.8,291.2
2023-10-23T01:00:08,2420,42.8014,5.9826,4330,272,186.780,57.205,13.309,36.019,36.599,41.195,4.595,295.3,543.8,291.3
2023-10-23T01:03:07,2420,42.8014,5.9826,4330,272,186.886,57.239,13.310,36.012,36.592,41.186,4.594,295.4,543.8,291.2
2023-10-23T01:06:08,2420,42.8014,5.9826,4330,272,186.601,57.152,13.311,36.031,36.611,41.198,4.587,295.4,543.7,291.2
2023-10-23T01:09:08,2420,42.8014,5.9826,4330,272,186.828,57.222,13.311,36.015,36.595,41.186,4.591,295.4,543.7,291.2
2023-10-23T01:12:08,2420,42.8014,5.9826,4330,272,186.761,57.198,13.309,36.021,36.601,41.195,4.593,295.4,543.8,291.3
2023-10-23T01:15:08,2420,42.8014,5.9826,4330,272,186.807,57.213,13.309,36.017,36.597,41.192,4.595,295.3,543.8,291.2
2023-10-23T01:18:08,2420,42.8014,5.9826,4330,272,186.680,57.185,13.318,36.022,36.602,41.194,4.592,295.4,543.7,291.0
2023-10-23T01:21:08,2420,42.8014,5.9826,4330,272,186.844,57.228,13.312,36.013,36.593,41.193,4.599,295.3,543.7,291.1
2023-10-23T01:24:08,2420,42.8014,5.9826,4330,272,186.911,57.247,13.311,36.011,36.591,41.183,4.592,295.4,543.8,291.2
2023-10-23T01:27:08,2420,42.8014,5.9826,4330,272,186.756,57.198,13.310,36.021,36.601,41.192,4.591,295.4,543.8,291.2
2023-10-23T01:30:08,2420,42.8014,5.9826,4330,272,186.839,57.225,13.311,36.015,36.595,41.189,4.594,295.4,543.8,291.2
2023-10-23T01:33:07,2420,42.8014,5.9826,4330,272,186.814,57.219,13.312,36.016,36.596,41.188,4.592,295.3,543.7,291.2
2023-10-23T01:36:08,2420,42.8014,5.9826,4330,272,186.907,57.246,13.311,36.010,36.591,41.187,4.596,295.4,543.8,291.2
2023-10-23T01:39:08,2420,42.8014,5.9826,4330,272,186.656,57.169,13.311,36.027,36.607,41.198,4.591,295.3,543.8,291.2
2023-10-23T01:42:08,2420,42.8014,5.9826,4330,272,186.749,57.197,13.311,36.021,36.601,41.195,4.594,295.4,543.8,291.2
2023-10-23T01:45:08,2420,42.8014,5.9826,4330,272,186.389,57.086,13.310,36.045,36.625,41.216,4.592,295.4,543.7,291.2
2023-10-23T01:48:08,2420,42.8014,5.9826,4330,272,186.624,57.159,13.311,36.029,36.609,41.199,4.590,295.4,543.8,291.2
2023-10-23T01:51:08,2420,42.8014,5.9826,4330,272,186.735,57.193,13.311,36.021,36.601,41.191,4.589,295.4,543.7,291.2
2023-10-23T01:54:08,2420,42.8014,5.9826,4330,272,186.767,57.203,13.311,36.019,36.599,41.189,4.590,295.4,543.7,291.2
2023-10-23T01:57:08,2420,42.8014,5.9826,4330,272,186.640,57.165,13.311,36.027,36.607,41.198,4.590,295.4,543.7,291.2
2023-10-23T02:00:08,2420,42.8014,5.9826,4330,272,186.671,57.173,13.311,36.026,36.606,41.198,4.592,295.3,543.7,291.2
2023-10-23T02:03:07,2420,42.8014,5.9826,4330,272,186.785,57.211,13.313,36.017,36.598,41.188,4.591,295.4,543.7,291.1
2023-10-23T02:06:08,2420,42.8014,5.9826,4330,272,186.793,57.213,13.313,36.017,36.597,41.189,4.592,295.4,543.7,291.1
2023-10-23T02:09:08,2420,42.8014,5.9826,4330,272,186.584,57.149,13.313,36.030,36.610,41.202,4.592,295.3,543.8,291.1
2023-10-23T02:12:08,2420,42.8014,5.9826,4330,272,186.968,57.268,13.313,36.005,36.586,41.178,4.593,295.4,543.8,291.1
2023-10-23T02:15:08,2420,42.8014,5.9826,4330,272,186.916,57.248,13.311,36.010,36.590,41.183,4.592,295.4,543.8,291.2
2023-10-23T02:18:08,2420,42.8014,5.9826,4330,272,186.787,57.212,13.314,36.017,36.597,41.191,4.594,295.4,543.7,291.1
2023-10-23T02:21:08,2420,42.8014,5.9826,4330,272,186.408,57.094,13.312,36.042,36.622,41.213,4.591,295.5,543.7,291.2
2023-10-23T02:24:08,2420,42.8014,5.9826,4330,272,186.652,57.166,13.310,36.027,36.607,41.200,4.593,295.4,543.8,291.2
2023-10-23T02:27:08,2420,42.8014,5.9826,4330,272,186.679,57.178,13.313,36.024,36.604,41.196,4.592,295.4,543.7,291.1
2023-10-23T02:30:08,2420,42.8014,5.9826,4330,272,186.809,57.213,13.309,36.017,36.598,41.190,4.593,295.3,543.7,291.3
2023-10-23T02:33:07,2420,42.8014,5.9826,4330,272,186.729,57.191,13.310,36.022,36.602,41.192,4.590,295.4,543.8,291.2
2023-10-23T02:36:08,2420,42.8014,5.9826,4330,272,186.667,57.171,13.310,36.026,36.606,41.196,4.589,295.4,543.7,291.2
2023-10-23T02:39:08,2420,42.8014,5.9826,4330,272,186.501,57.123,13.312,36.037,36.617,41.208,4.591,295.4,543.7,291.2
2023-10-23T02:42:08,2420,42.8014,5.9826,4330,272,186.518,57.129,13.313,36.035,36.615,41.201,4.586,295.4,543.7,291.1
2023-10-23T02:45:07,2420,42.8014,5.9826,4330,272,186.575,57.150,13.316,36.029,36.610,41.197,4.588,295.3,543.7,291.0
2023-10-23T02:48:08,2420,42.8014,5.9826,4330,272,186.771,57.204,13.311,36.019,36.599,41.189,4.590,295.4,543.7,291.2
2023-10-23T02:51:08,2420,42.8014,5.9826,4330,272,186.556,57.138,13.311,36.032,36.613,41.205,4.593,295.4,543.8,291.2
2023-10-23T02:54:08,2420,42.8014,5.9826,4330,272,186.870,57.235,13.312,36.012,36.592,41.184,4.592,295.4,543.8,291.2
2023-10-23T02:57:08,2420,42.8014,5.9826,4330,272,186.610,57.156,13.312,36.029,36.609,41.197,4.588,295.4,543.8,291.1
2023-10-23T03:00:08,2420,42.8014,5.9826,4330,272,186.705,57.183,13.310,36.024,36.604,41.195,4.591,295.4,543.8,291.2
2023-10-23T03:03:07,2420,42.8014,5.9826,4330,272,186.688,57.176,13.309,36.025,36.605,41.193,4.588,295.3,543.7,291.3
2023-10-23T03:06:08,2420,42.8014,5.9826,4330,272,186.374,57.087,13.315,36.043,36.623,41.214,4.591,295.3,543.7,291.1
2023-10-23T03:09:08,2420,42.8014,5.9826,4330,272,186.649,57.164,13.309,36.028,36.608,41.201,4.593,295.4,543.8,291.2
2023-10-23T03:12:08,2420,42.8014,5.9826,4330,272,186.696,57.181,13.311,36.024,36.604,41.192,4.588,295.4,543.8,291.2
2023-10-23T03:15:08,2420,42.8014,5.9826,4330,272,186.600,57.151,13.310,36.031,36.611,41.196,4.585,295.5,543.7,291.2
2023-10-23T03:18:08,2420,42.8014,5.9826,4330,272,186.735,57.193,13.311,36.021,36.601,41.191,4.590,295.4,543.8,291.2
2023-10-23T03:21:08,2420,42.8014,5.9826,4330,272,186.650,57.167,13.311,36.027,36.607,41.200,4.593,295.4,543.8,291.2
2023-10-23T03:24:08,2420,42.8014,5.9826,4330,272,186.677,57.177,13.312,36.025,36.605,41.193,4.588,295.3,543.8,291.2
2023-10-23T03:27:08,2420,42.8014,5.9826,4330,272,186.649,57.169,13.313,36.026,36.606,41.196,4.590,295.3,543.7,291.1
2023-10-23T03:30:08,2420,42.8014,5.9826,4330,272,186.769,57.203,13.310,36.019,36.599,41.197,4.598,295.4,543.7,291.2
2023-10-23T03:33:07,2420,42.8014,5.9826,4330,272,186.817,57.219,13.311,36.015,36.596,41.187,4.591,295.4,543.8,291.2
2023-10-23T03:36:08,2420,42.8014,5.9826,4330,272,186.565,57.143,13.313,36.032,36.612,41.205,4.593,295.4,543.8,291.1
2023-10-23T03:39:08,2420,42.8014,5.9826,4330,272,186.807,57.214,13.310,36.017,36.597,41.186,4.588,295.4,543.8,291.2
2023-10-23T03:42:08,2420,42.8014,5.9826,4330,272,186.576,57.143,13.310,36.032,36.612,41.197,4.585,295.4,543.7,291.2
2023-10-23T03:45:07,2420,42.8014,5.9826,4330,272,186.915,57.247,13.310,36.010,36.591,41.185,4.594,295.4,543.8,291.2
2023-10-23T03:48:07,2420,42.8014,5.9826,4330,272,186.750,57.195,13.309,36.021,36.602,41.190,4.589,295.4,543.8,291.3
2023-10-23T03:51:08,2420,42.8014,5.9826,4330,272,186.494,57.118,13.310,36.038,36.618,41.202,4.585,295.4,543.8,291.2
2023-10-23T03:54:08,2420,42.8014,5.9826,4330,272,186.726,57.188,13.309,36.023,36.603,41.195,4.591,295.4,543.8,291.3
2023-10-23T03:57:08,2420,42.8014,5.9826,4330,272,186.723,57.188,13.310,36.022,36.603,41.193,4.590,295.3,543.7,291.2
2023-10-23T04:00:08,2420,42.8014,5.9826,4330,272,186.744,57.194,13.309,36.021,36.602,41.196,4.594,295.4,543.8,291.2
2023-10-23T04:03:07,2420,42.8014,5.9826,4330,272,186.840,57.226,13.311,36.014,36.595,41.188,4.594,295.4,543.8,291.2
2023-10-23T04:06:08,2420,42.8014,5.9826,4330,272,186.651,57.165,13.309,36.028,36.608,41.202,4.594,295.4,543.8,291.3
2023-10-23T04:09:08,2420,42.8014,5.9826,4330,272,186.949,57.259,13.311,36.007,36.588,41.182,4.595,295.5,543.8,291.2
2023-10-23T04:12:08,2420,42.8014,5.9826,4330,272,186.654,57.166,13.309,36.028,36.608,41.197,4.589,295.4,543.8,291.2
2023-10-23T04:15:08,2420,42.8014,5.9826,4330,272,186.798,57.210,13.309,36.019,36.599,41.192,4.593,295.4,543.7,291.3
2023-10-23T04:18:08,2420,42.8014,5.9826,4330,272,186.597,57.154,13.314,36.029,36.609,41.198,4.589,295.3,543.7,291.1
2023-10-23T04:21:08,2420,42.8014,5.9826,4330,272,186.720,57.188,13.311,36.022,36.602,41.195,4.592,295.3,543.7,291.2
2023-10-23T04:24:08,2420,42.8014,5.9826,4330,272,186.698,57.181,13.311,36.024,36.604,41.197,4.592,295.3,543.7,291.2
2023-10-23T04:27:08,2420,42.8014,5.9826,4330,272,186.688,57.176,13.309,36.026,36.606,41.197,4.591,295.4,543.8,291.3
2023-10-23T04:30:08,2420,42.8014,5.9826,4330,272,186.800,57.210,13.309,36.018,36.598,41.190,4.592,295.3,543.7,291.3
2023-10-23T04:33:07,2420,42.8014,5.9826,4330,272,186.615,57.154,13.309,36.030,36.610,41.197,4.587,295.3,543.8,291.3
2023-10-23T04:36:08,2420,42.8014,5.9826,4330,272,186.754,57.195,13.308,36.022,36.602,41.194,4.592,295.4,543.8,291.3
2023-10-23T04:39:08,2420,42.8014,5.9826,4330,272,186.443,57.105,13.312,36.039,36.619,41.209,4.590,295.3,543.7,291.2
2023-10-23T04:42:08,2420,42.8014,5.9826,4330,272,186.774,57.204,13.310,36.019,36.599,41.188,4.589,295.4,543.8,291.2
2023-10-23T04:45:08,2420,42.8014,5.9826,4330,272,186.598,57.149,13.309,36.031,36.611,41.199,4.588,295.4,543.7,291.3
2023-10-23T04:48:08,2420,42.8014,5.9826,4330,272,186.482,57.112,13.308,36.039,36.619,41.207,4.588,295.4,543.8,291.3
2023-10-23T04:51:08,2420,42.8014,5.9826,4330,272,186.954,57.259,13.310,36.008,36.588,41.183,4.595,295.4,543.8,291.2
2023-10-23T04:54:08,2420,42.8014,5.9826,4330,272,186.551,57.134,13.309,36.034,36.614,41.205,4.591,295.3,543.7,291.3
2023-10-23T04:57:08,2420,42.8014,5.9826,4330,272,186.732,57.187,13.307,36.024,36.604,41.196,4.592,295.4,543.8,291.3
2023-10-23T05:00:08,2420,42.8014,5.9826,4330,272,186.745,57.193,13.309,36.021,36.602,41.192,4.590,295.4,543.7,291.3
2023-10-23T05:03:07,2420,42.8014,5.9826,4330,272,186.723,57.185,13.308,36.024,36.604,41.194,4.590,295.4,543.8,291.3
2023-10-23T05:06:07,2420,42.8014,5.9826,4330,272,186.934,57.249,13.307,36.010,36.590,41.179,4.589,295.3,543.8,291.3
2023-10-23T05:09:08,2420,42.8014,5.9826,4330,272,186.562,57.139,13.310,36.034,36.614,41.206,4.593,295.4,543.7,291.2
2023-10-23T05:12:08,2420,42.8014,5.9826,4330,272,186.874,57.232,13.308,36.014,36.594,41.186,4.592,295.3,543.8,291.3
2023-10-23T05:15:08,2420,42.8014,5.9826,4330,272,186.608,57.149,13.307,36.032,36.612,41.205,4.593,295.3,543.8,291.3
2023-10-23T05:18:08,2420,42.8014,5.9826,4330,272,186.742,57.193,13.309,36.022,36.602,41.193,4.591,295.3,543.8,291.3
2023-10-23T05:21:08,2420,42.8014,5.9826,4330,272,186.613,57.153,13.309,36.030,36.610,41.201,4.591,295.4,543.8,291.3
2023-10-23T05:24:08,2420,42.8014,5.9826,4330,272,186.668,57.170,13.309,36.027,36.607,41.198,4.592,295.4,543.9,291.3
2023-10-23T05:27:08,2420,42.8014,5.9826,4330,272,186.695,57.177,13.308,36.025,36.606,41.196,4.590,295.4,543.8,291.3
2023-10-23T05:30:08,2420,42.8014,5.9826,4330,272,186.581,57.143,13.308,36.033,36.613,41.201,4.589,295.3,543.8,291.3
2023-10-23T05:33:07,2420,42.8014,5.9826,4330,272,186.657,57.166,13.308,36.028,36.608,41.200,4.591,295.3,543.7,291.3
2023-10-23T05:36:08,2420,42.8014,5.9826,4330,272,186.858,57.227,13.308,36.015,36.595,41.187,4.593,295.3,543.7,291.3
2023-10-23T05:39:08,2420,42.8014,5.9826,4330,272,186.554,57.136,13.310,36.033,36.613,41.204,4.591,295.3,543.8,291.2
2023-10-23T05:42:08,2420,42.8014,5.9826,4330,272,186.971,57.264,13.310,36.006,36.587,41.178,4.591,295.4,543.7,291.2
2023-10-23T05:45:08,2420,42.8014,5.9826,4330,272,186.485,57.114,13.309,36.039,36.619,41.204,4.586,295.3,543.7,291.2
2023-10-23T05:48:08,2420,42.8014,5.9826,4330,272,186.631,57.163,13.313,36.028,36.608,41.202,4.594,295.4,543.7,291.1
2023-10-23T05:51:08,2420,42.8014,5.9826,4330,272,186.772,57.207,13.313,36.018,36.598,41.186,4.588,295.3,543.7,291.1
2023-10-23T05:54:07,2420,42.8014,5.9826,4330,272,186.741,57.194,13.310,36.021,36.601,41.192,4.590,295.3,543.8,291.2
2023-10-23T05:57:08,2420,42.8014,5.9826,4330,272,186.875,57.235,13.310,36.013,36.593,41.185,4.592,295.3,543.8,291.2
2023-10-23T06:00:08,2420,42.8014,5.9826,4330,272,186.803,57.214,13.311,36.017,36.597,41.190,4.593,295.4,543.7,291.2
2023-10-23T06:03:07,2420,42.8014,5.9826,4330,272,186.683,57.177,13.311,36.025,36.605,41.192,4.587,295.4,543.8,291.2
2023-10-23T06:06:08,2420,42.8014,5.9826,4330,272,186.862,57.230,13.309,36.015,36.595,41.186,4.591,295.4,543.8,291.3
2023-10-23T06:09:08,2420,42.8014,5.9826,4330,272,186.822,57.217,13.309,36.017,36.597,41.190,4.593,295.3,543.8,291.3
2023-10-23T06:12:08,2420,42.8014,5.9826,4330,272,186.600,57.149,13.309,36.031,36.612,41.201,4.590,295.4,543.9,291.3
2023-10-23T06:15:08,2420,42.8014,5.9826,4330,272,186.963,57.260,13.308,36.008,36.588,41.180,4.591,295.4,543.9,291.3
2023-10-23T06:18:07,2420,42.8014,5.9826,4330,272,186.659,57.170,13.311,36.026,36.606,41.200,4.594,295.3,543.8,291.2
2023-10-23T06:21:08,2420,42.8014,5.9826,4330,272,186.940,57.254,13.310,36.009,36.589,41.181,4.592,295.3,543.8,291.2
2023-10-23T06:24:08,2420,42.8014,5.9826,4330,272,186.553,57.141,13.314,36.032,36.612,41.202,4.589,295.4,543.7,291.1
2023-10-23T06:27:08,2420,42.8014,5.9826,4330,272,186.798,57.215,13.313,36.016,36.596,41.191,4.595,295.3,543.7,291.1
2023-10-23T06:30:08,2420,42.8014,5.9826,4330,272,186.866,57.235,13.312,36.012,36.593,41.190,4.597,295.3,543.7,291.2
2023-10-23T06:33:07,2420,42.8014,5.9826,4330,272,186.719,57.188,13.311,36.023,36.603,41.196,4.593,295.3,543.8,291.2
2023-10-23T06:36:08,2420,42.8014,5.9826,4330,272,186.936,57.252,13.309,36.010,36.590,41.180,4.590,295.4,543.8,291.3
2023-10-23T06:39:08,2420,42.8014,5.9826,4330,272,186.738,57.192,13.310,36.022,36.602,41.194,4.592,295.3,543.7,291.2
2023-10-23T06:42:08,2420,42.8014,5.9826,4330,272,186.762,57.199,13.309,36.020,36.600,41.192,4.592,295.3,543.7,291.2
2023-10-23T06:45:08,2420,42.8014,5.9826,4330,272,186.648,57.169,13.313,36.026,36.606,41.198,4.592,295.3,543.8,291.1
2023-10-23T06:48:08,2420,42.8014,5.9826,4330,272,186.480,57.118,13.313,36.037,36.617,41.206,4.589,295.4,543.7,291.1
2023-10-23T06:51:07,2420,42.8014,5.9826,4330,272,186.713,57.191,13.315,36.021,36.602,41.195,4.593,295.3,543.7,291.1
2023-10-23T06:54:08,2420,42.8014,5.9826,4330,272,186.278,57.058,13.315,36.049,36.629,41.215,4.586,295.4,543.7,291.1
2023-10-23T06:57:08,2420,42.8014,5.9826,4330,272,186.788,57.211,13.313,36.017,36.597,41.191,4.594,295.3,543.8,291.1
2023-10-23T07:00:08,2420,42.8014,5.9826,4330,272,186.726,57.193,13.313,36.021,36.601,41.194,4.593,295.3,543.8,291.1
2023-10-23T07:03:07,2420,42.8014,5.9826,4330,272,186.640,57.167,13.314,36.026,36.606,41.192,4.586,295.4,543.8,291.1
2023-10-23T07:06:08,2420,42.8014,5.9826,4330,272,186.621,57.162,13.314,36.027,36.607,41.195,4.588,295.4,543.8,291.1
2023-10-23T07:09:07,2420,42.8014,5.9826,4330,272,186.622,57.160,13.312,36.028,36.608,41.197,4.589,295.4,543.7,291.1
2023-10-23T07:12:08,2420,42.8014,5.9826,4330,272,186.658,57.173,13.314,36.025,36.605,41.201,4.596,295.4,543.8,291.1
2023-10-23T07:15:08,2420,42.8014,5.9826,4330,272,187.009,57.285,13.317,36.001,36.581,41.173,4.592,295.4,543.7,291.0
2023-10-23T07:18:07,2420,42.8014,5.9826,4330,272,186.530,57.132,13.313,36.034,36.614,41.204,4.590,295.4,543.7,291.1
2023-10-23T07:21:08,2420,42.8014,5.9826,4330,272,186.414,57.102,13.316,36.040,36.620,41.207,4.588,295.4,543.8,291.0
2023-10-23T07:24:07,2420,42.8014,5.9826,4330,272,186.888,57.249,13.318,36.008,36.589,41.183,4.594,295.4,543.7,291.0
2023-10-23T07:27:08,2420,42.8014,5.9826,4330,272,186.776,57.210,13.315,36.017,36.597,41.191,4.594,295.5,543.7,291.1
2023-10-23T07:30:08,2420,42.8014,5.9826,4330,272,186.833,57.228,13.315,36.014,36.594,41.188,4.594,295.3,543.8,291.1
2023-10-23T07:33:07,2420,42.8014,5.9826,4330,272,186.757,57.202,13.313,36.019,36.599,41.190,4.591,295.4,543.8,291.1
2023-10-23T07:36:08,2420,42.8014,5.9826,4330,272,186.611,57.157,13.312,36.029,36.609,41.204,4.595,295.4,543.7,291.2
2023-10-23T07:39:08,2420,42.8014,5.9826,4330,272,186.383,57.090,13.315,36.042,36.622,41.210,4.588,295.4,543.8,291.1
2023-10-23T07:42:08,2420,42.8014,5.9826,4330,272,186.656,57.172,13.314,36.025,36.606,41.193,4.588,295.4,543.7,291.1
2023-10-23T07:45:08,2420,42.8014,5.9826,4330,272,186.630,57.167,13.315,36.026,36.606,41.199,4.593,295.4,543.8,291.1
2023-10-23T07:48:08,2420,42.8014,5.9826,4330,272,186.614,57.159,13.313,36.028,36.609,41.200,4.591,295.4,543.8,291.1
2023-10-23T07:51:08,2420,42.8014,5.9826,4330,272,186.662,57.181,13.319,36.022,36.602,41.194,4.592,295.4,543.7,290.9
2023-10-23T07:54:07,2420,42.8014,5.9826,4330,272,186.721,57.198,13.319,36.018,36.598,41.188,4.589,295.3,543.7,290.9
2023-10-23T07:57:07,2420,42.8014,5.9826,4330,272,186.458,57.121,13.321,36.035,36.615,41.200,4.585,295.4,543.7,290.9
2023-10-23T08:00:07,2420,42.8014,5.9826,4330,272,186.753,57.205,13.316,36.018,36.598,41.186,4.588,295.3,543.7,291.0
2023-10-23T08:03:08,2420,42.8014,5.9826,4330,272,186.552,57.142,13.315,36.032,36.612,41.201,4.590,295.4,543.7,291.1
2023-10-23T08:06:07,2420,42.8014,5.9826,4330,272,186.427,57.107,13.318,36.038,36.618,41.208,4.590,295.4,543.7,291.0
2023-10-23T08:09:07,2420,42.8014,5.9826,4330,272,186.679,57.179,13.314,36.023,36.604,41.194,4.590,295.3,543.7,291.1
2023-10-23T08:12:07,2420,42.8014,5.9826,4330,272,186.615,57.163,13.316,36.027,36.607,41.201,4.593,295.4,543.8,291.0
2023-10-23T08:15:07,2420,42.8014,5.9826,4330,272,186.557,57.144,13.316,36.031,36.611,41.202,4.591,295.4,543.7,291.0
2023-10-23T08:18:07,2420,42.8014,5.9826,4330,272,186.460,57.124,13.323,36.034,36.614,41.205,4.591,295.5,543.7,290.8
2023-10-23T08:21:07,2420,42.8014,5.9826,4330,272,186.589,57.154,13.316,36.029,36.609,41.198,4.589,295.4,543.7,291.0
2023-10-23T08:24:08,2420,42.8014,5.9826,4330,272,186.625,57.167,13.317,36.025,36.606,41.197,4.591,295.4,543.7,291.0
2023-10-23T08:27:08,2420,42.8014,5.9826,4330,272,186.643,57.173,13.317,36.024,36.604,41.190,4.586,295.4,543.7,291.0
2023-10-23T08:30:08,2420,42.8014,5.9826,4330,272,186.575,57.153,13.318,36.028,36.608,41.198,4.590,295.4,543.7,291.0
2023-10-23T08:33:07,2420,42.8014,5.9826,4330,272,186.462,57.116,13.316,36.036,36.617,41.208,4.591,295.4,543.7,291.0
2023-10-23T08:36:07,2420,42.8014,5.9826,4330,272,186.648,57.171,13.315,36.026,36.606,41.198,4.593,295.5,543.8,291.1
2023-10-23T08:39:07,2420,42.8014,5.9826,4330,272,186.667,57.179,13.316,36.023,36.603,41.195,4.592,295.5,543.7,291.0
2023-10-23T08:42:07,2420,42.8014,5.9826,4330,272,186.437,57.113,13.320,36.036,36.616,41.207,4.591,295.4,543.8,290.9
2023-10-23T08:45:07,2420,42.8014,5.9826,4330,272,186.323,57.077,13.319,36.044,36.624,41.215,4.591,295.5,543.7,290.9
2023-10-23T08:48:07,2420,42.8014,5.9826,4330,272,186.491,57.131,13.321,36.033,36.613,41.206,4.593,295.4,543.7,290.9
2023-10-23T08:51:07,2420,42.8014,5.9826,4330,272,186.526,57.134,13.315,36.033,36.613,41.204,4.590,295.5,543.7,291.1
2023-10-23T08:54:07,2420,42.8014,5.9826,4330,272,186.550,57.143,13.316,36.031,36.611,41.202,4.591,295.4,543.7,291.0
2023-10-23T08:57:08,2420,42.8014,5.9826,4330,272,186.358,57.093,13.324,36.040,36.620,41.212,4.592,295.3,543.6,290.8
2023-10-23T09:00:08,2420,42.8014,5.9826,4330,272,186.435,57.119,13.325,36.034,36.614,41.205,4.591,295.4,543.7,290.7
2023-10-23T09:03:07,2420,42.8014,5.9826,4330,272,186.382,57.107,13.328,36.036,36.616,41.203,4.588,295.4,543.6,290.6
2023-10-23T09:06:07,2420,42.8014,5.9826,4330,272,186.450,57.131,13.331,36.030,36.610,41.201,4.591,295.4,543.6,290.5
2023-10-23T09:09:08,2420,42.8014,5.9826,4330,272,186.570,57.158,13.323,36.026,36.606,41.198,4.592,295.4,543.6,290.8
2023-10-23T09:12:08,2420,42.8014,5.9826,4330,272,186.582,57.167,13.327,36.024,36.604,41.195,4.591,295.4,543.6,290.7
2023-10-23T09:15:08,2420,42.8014,5.9826,4330,272,186.220,57.061,13.331,36.045,36.625,41.213,4.587,295.5,543.7,290.5
2023-10-23T09:18:08,2420,42.8014,5.9826,4330,272,186.489,57.137,13.326,36.030,36.610,41.200,4.589,295.4,543.7,290.7
2023-10-23T09:21:08,2420,42.8014,5.9826,4330,272,186.518,57.139,13.321,36.031,36.611,41.205,4.594,295.5,543.7,290.9
2023-10-23T09:24:08,2420,42.8014,5.9826,4330,272,186.430,57.112,13.321,36.036,36.616,41.212,4.596,295.5,543.7,290.9
2023-10-23T09:27:07,2420,42.8014,5.9826,4330,272,186.522,57.151,13.329,36.027,36.607,41.203,4.596,295.4,543.6,290.6
2023-10-23T09:30:07,2420,42.8014,5.9826,4330,272,186.393,57.109,13.327,36.036,36.616,41.205,4.589,295.4,543.7,290.7
2023-10-23T09:33:08,2420,42.8014,5.9826,4330,272,186.534,57.148,13.324,36.028,36.608,41.196,4.588,295.5,543.7,290.8
2023-10-23T09:36:08,2420,42.8014,5.9826,4330,272,186.338,57.092,13.327,36.039,36.619,41.210,4.591,295.5,543.7,290.7
2023-10-23T09:39:07,2420,42.8014,5.9826,4330,272,186.491,57.138,13.327,36.030,36.610,41.195,4.585,295.5,543.6,290.7
2023-10-23T09:42:07,2420,42.8014,5.9826,4330,272,186.361,57.097,13.326,36.038,36.618,41.207,4.589,295.5,543.7,290.7
2023-10-23T09:45:07,2420,42.8014,5.9826,4330,272,186.315,57.082,13.325,36.042,36.622,41.212,4.590,295.5,543.7,290.8
2023-10-23T09:48:07,2420,42.8014,5.9826,4330,272,186.411,57.111,13.324,36.036,36.616,41.202,4.586,295.4,543.6,290.8
2023-10-23T09:51:07,2420,42.8014,5.9826,4330,272,186.486,57.130,13.322,36.033,36.613,41.206,4.593,295.5,543.7,290.8
2023-10-23T09:54:07,2420,42.8014,5.9826,4330,272,186.269,57.064,13.322,36.046,36.626,41.220,4.593,295.4,543.6,290.8
2023-10-23T09:57:07,2420,42.8014,5.9826,4330,272,186.451,57.126,13.327,36.032,36.612,41.204,4.592,295.4,543.6,290.7
2023-10-23T10:00:07,2420,42.8014,5.9826,4330,272,186.564,57.153,13.320,36.028,36.608,41.198,4.590,295.4,543.6,290.9